Weather History for KFLL - October, 2011

Change the Weather History Date:

Sunday, October 16, 2011

  Actual Average Record
Temperature  
Mean Temperature 78 °F 81 °F  
Max Temperature 82 °F 86 °F 92 °F (1925)
Min Temperature 73 °F 75 °F 55 °F (1955)
Degree Days  
Heating Degree Days 0 0  
Month to date heating degree days 0 0  
Since 1 July heating degree days 0 0  
Cooling Degree Days 13 16  
Month to date cooling degree days 256 267  
Year to date cooling degree days 4109 3979  
Growing Degree Days 28 (Base 50)    
Moisture  
Dew Point 74 °F    
Average Humidity 87    
Maximum Humidity 100    
Minimum Humidity 74    
Precipitation  
Precipitation 2.31 in 0.21 in 4.53 in (1999)
Month to date precipitation 6.79 4.27  
Year to date precipitation 30.14 53.93  
Snow  
Snow 0.00 in - - ()
Month to date snowfall 0.0  
Since 1 July snowfall 0.0  
Since 1 September snowfall 0.0  
Snow Depth 0.00 in    
Sea Level Pressure  
Sea Level Pressure 29.98 in    
Wind  
Wind Speed 15 mph (East)    
Max Wind Speed 25 mph    
Max Gust Speed 33 mph    
Visibility 5 miles    
Events Fog , Rain    
T = Trace of Precipitation, MM = Missing Value Source: NWS Daily Summary

Daily Weather History Graph

Daily Weather History Graph

Search for Another Location

Airport or City:

Trip Planner

Search our weather history database for the weather conditions in past years. The results will help you decide how hot, cold, wet, or windy it might be!

Date:

Astronomy

Oct. 16, 2011 Rise Set
Actual Time 7:19 AM EDT 6:52 PM EDT
Civil Twilight 6:56 AM EDT 7:15 PM EDT
Nautical Twilight 6:29 AM EDT 7:42 PM EDT
Astronomical Twilight 6:03 AM EDT 8:08 PM EDT
Moon 10:00 PM EDT (10/16) 11:11 AM EDT (10/16)
Length of Visible Light 12h 18m
Length of Day
11h 32m
Waning Gibbous, 82% of the Moon is Illuminated
Oct 16
Waning Gibbous
Oct 19
Last Quarter
Oct 26
New
Nov 2
First Quarter
Nov 10
Full

Hourly Weather History & Observations

Time (EDT) Temp. Heat Index Dew Point Humidity Pressure Visibility Wind Dir Wind Speed Gust Speed Precip Events Conditions
12:19 AM 80.6 °F 85.4 °F 73.4 °F 79% 30.02 in 10.0 mi East 13.8 mph - 0.00 in Rain Light Rain
12:53 AM 80.1 °F 83.8 °F 72.0 °F 76% 30.00 in 10.0 mi East 15.0 mph - 0.00 in   Mostly Cloudy
1:53 AM 80.1 °F 83.8 °F 72.0 °F 76% 30.00 in 10.0 mi East 15.0 mph 20.7 mph N/A   Partly Cloudy
2:53 AM 80.1 °F 83.8 °F 72.0 °F 76% 29.98 in 10.0 mi ENE 13.8 mph 23.0 mph N/A   Mostly Cloudy
3:40 AM 80.6 °F 84.6 °F 71.6 °F 74% 29.96 in 10.0 mi ENE 16.1 mph 23.0 mph N/A   Mostly Cloudy
3:53 AM 80.1 °F 83.8 °F 72.0 °F 76% 29.96 in 10.0 mi ENE 18.4 mph 24.2 mph N/A   Mostly Cloudy
4:53 AM 80.1 °F 83.8 °F 72.0 °F 76% 29.95 in 10.0 mi ENE 17.3 mph 21.9 mph N/A   Mostly Cloudy
5:53 AM 80.1 °F 83.8 °F 72.0 °F 76% 29.96 in 10.0 mi ENE 11.5 mph 20.7 mph N/A   Scattered Clouds
6:53 AM 80.1 °F 84.2 °F 73.0 °F 79% 29.98 in 10.0 mi ENE 13.8 mph - N/A   Partly Cloudy
7:53 AM 81.0 °F 85.8 °F 73.0 °F 77% 29.98 in 10.0 mi East 13.8 mph 23.0 mph N/A   Mostly Cloudy
8:07 AM 80.6 °F 84.6 °F 71.6 °F 74% 29.99 in 10.0 mi ENE 15.0 mph - N/A   Scattered Clouds
8:53 AM 81.0 °F 85.8 °F 73.0 °F 77% 30.01 in 10.0 mi East 13.8 mph - N/A   Mostly Cloudy
9:53 AM 82.0 °F 87.4 °F 73.0 °F 74% 30.02 in 10.0 mi ENE 13.8 mph 23.0 mph N/A   Scattered Clouds
10:28 AM 82.4 °F 88.2 °F 73.4 °F 74% 30.02 in 10.0 mi ENE 17.3 mph 24.2 mph N/A   Mostly Cloudy
10:53 AM 82.0 °F 87.4 °F 73.0 °F 74% 30.02 in 10.0 mi ENE 13.8 mph 21.9 mph N/A   Mostly Cloudy
11:53 AM 80.1 °F 85.1 °F 75.0 °F 85% 30.02 in 6.0 mi East 19.6 mph 25.3 mph 0.00 in Rain Light Rain
11:57 AM 78.8 °F - 73.4 °F 83% 30.02 in 2.5 mi ENE 15.0 mph - 0.01 in Rain Rain
12:12 PM 78.8 °F - 75.2 °F 89% 30.01 in 10.0 mi East 11.5 mph 23.0 mph 0.10 in Rain Rain
12:53 PM 80.1 °F 85.8 °F 77.0 °F 90% 30.00 in 8.0 mi ENE 12.7 mph 21.9 mph 0.10 in Rain Light Rain
1:53 PM 80.1 °F 85.4 °F 75.9 °F 87% 29.97 in 6.0 mi ENE 17.3 mph - 0.00 in Rain Light Rain
2:00 PM 80.6 °F 86.2 °F 75.2 °F 84% 29.97 in 6.0 mi ENE 18.4 mph - 0.00 in Rain Light Rain
2:08 PM 78.8 °F - 75.2 °F 89% 29.97 in 4.0 mi ENE 18.4 mph 24.2 mph 0.00 in Rain Light Rain
2:53 PM 75.9 °F - 73.0 °F 91% 29.96 in 4.0 mi East 13.8 mph 26.5 mph 0.00 in Rain Rain
3:14 PM 75.2 °F - 73.4 °F 94% 29.96 in 2.0 mi ESE 15.0 mph - N/A Rain Heavy Rain
3:17 PM 75.2 °F - 75.2 °F 100% 29.96 in 3.0 mi ESE 18.4 mph - N/A Rain Rain
3:30 PM 77.0 °F - 75.2 °F 94% 29.96 in 0.5 mi East 23.0 mph 32.2 mph N/A Rain Heavy Rain
3:40 PM 75.2 °F - 73.4 °F 94% 29.97 in 1.2 mi ENE 16.1 mph 24.2 mph N/A Rain Heavy Rain
3:44 PM 73.4 °F - 71.6 °F 94% 29.97 in 3.0 mi ENE 10.4 mph 19.6 mph N/A Rain Heavy Rain
3:53 PM 75.0 °F - 73.0 °F 94% 29.96 in 4.0 mi East 8.1 mph - N/A Rain Light Rain
4:07 PM 75.2 °F - 75.2 °F 100% 29.97 in 4.0 mi SSE 6.9 mph - 0.00 in Rain Light Rain
4:11 PM 75.2 °F - 75.2 °F 100% 29.97 in 1.5 mi SE 8.1 mph - 0.02 in Rain Rain
4:16 PM 75.2 °F - 75.2 °F 100% 29.97 in 0.5 mi East 5.8 mph - 0.07 in Fog , Rain Heavy Rain
4:26 PM 75.2 °F - 75.2 °F 100% 29.97 in 0.2 mi East 13.8 mph 18.4 mph 0.75 in Fog , Rain Heavy Rain
4:31 PM 75.2 °F - 73.4 °F 94% 29.97 in 0.5 mi East 6.9 mph 20.7 mph 0.95 in Fog , Rain Heavy Rain
4:34 PM 75.2 °F - 73.4 °F 94% 29.97 in 1.0 mi ENE 6.9 mph 20.7 mph 0.97 in Rain Heavy Rain
4:40 PM 75.2 °F - 73.4 °F 94% 29.97 in 3.0 mi ENE 12.7 mph - 0.98 in Rain Rain
4:53 PM 75.9 °F - 73.9 °F 94% 29.97 in 3.0 mi East 12.7 mph - 0.98 in Rain Rain
5:05 PM 75.2 °F - 73.4 °F 94% 29.97 in 1.2 mi SE 19.6 mph 24.2 mph N/A Rain Heavy Rain
5:09 PM 73.4 °F - 73.4 °F 100% 29.97 in 1.0 mi SE 13.8 mph 24.2 mph N/A Rain Heavy Rain
5:48 PM 75.2 °F - 75.2 °F 100% 29.97 in 3.0 mi East 8.1 mph - N/A Rain Heavy Rain
5:53 PM 75.0 °F - 75.0 °F 100% 29.97 in 4.0 mi ESE 12.7 mph - N/A Rain Rain
6:02 PM 75.2 °F - 73.4 °F 94% 29.97 in 2.0 mi East 12.7 mph 21.9 mph 0.01 in Rain Rain
6:04 PM 75.2 °F - 75.2 °F 100% 29.97 in 1.8 mi East 16.1 mph 21.9 mph 0.02 in Rain Rain
6:18 PM 75.2 °F - 73.4 °F 94% 29.97 in 1.0 mi East 15.0 mph 23.0 mph 0.08 in Rain Heavy Rain
6:25 PM 75.2 °F - 73.4 °F 94% 29.97 in 3.0 mi East 13.8 mph 23.0 mph 0.12 in Rain Rain
6:33 PM 73.4 °F - 73.4 °F 100% 29.97 in 0.5 mi East 12.7 mph - 0.32 in Fog , Rain Heavy Rain
6:41 PM 73.4 °F - 73.4 °F 100% 29.97 in 1.2 mi East 15.0 mph 23.0 mph 0.41 in Rain Heavy Rain
6:46 PM 75.2 °F - 73.4 °F 94% 29.96 in 3.0 mi East 15.0 mph 23.0 mph 0.41 in Rain Rain
6:53 PM 75.0 °F - 73.9 °F 96% 29.97 in 1.0 mi East 26.5 mph 33.4 mph 0.52 in Rain Heavy Rain
7:00 PM 73.4 °F - 73.4 °F 100% 29.97 in 3.0 mi East 16.1 mph 33.4 mph 0.01 in Rain Rain
7:16 PM 75.2 °F - 75.2 °F 100% 29.97 in 9.0 mi ESE 13.8 mph - 0.01 in Rain Light Rain
7:37 PM 75.2 °F - 75.2 °F 100% 29.97 in 6.0 mi ESE 13.8 mph - 0.01 in Rain Light Rain
7:44 PM 75.2 °F - 75.2 °F 100% 29.97 in 7.0 mi ESE 19.6 mph 25.3 mph 0.01 in Rain Light Rain
7:53 PM 73.9 °F - 73.0 °F 97% 29.97 in 10.0 mi ESE 15.0 mph 24.2 mph 0.01 in Rain Light Rain
8:53 PM 75.0 °F - 73.9 °F 96% 29.99 in 6.0 mi ESE 12.7 mph 21.9 mph 0.00 in Rain Light Rain
9:35 PM 75.2 °F - 73.4 °F 94% 30.00 in 5.0 mi ESE 20.7 mph 27.6 mph 0.00 in Rain Light Rain
9:53 PM 73.9 °F - 73.0 °F 97% 30.00 in 6.0 mi ESE 20.7 mph 31.1 mph 0.00 in Rain Light Rain
10:11 PM 75.2 °F - 73.4 °F 94% 30.00 in 7.0 mi ESE 19.6 mph 27.6 mph 0.00 in Rain Light Rain
10:53 PM 75.0 °F - 75.0 °F 100% 30.01 in 5.0 mi ESE 18.4 mph 24.2 mph 0.00 in Rain Rain
11:34 PM 75.2 °F - 71.6 °F 89% 30.00 in 3.0 mi ESE 19.6 mph - N/A Rain Rain
11:53 PM 73.9 °F - 71.8 °F 93% 30.01 in 4.0 mi East 17.3 mph 31.1 mph N/A Rain Light Rain